This is the latest recevied weather packets stored in our database for station/object KD2RHT-13. If no packets are shown the sender has not sent any weather packets the latest 10 day(s).
| Time | Temp. | Humidity | Pressure | Rain* | Wind** | Luminosity | Snow |
|---|---|---|---|---|---|---|---|
| 1778062910 | 6.67° C | 99% | 1010 hPa | 1.78 mm | - | 0 W/m² | - |
| 1778062607 | 6.67° C | 99% | 1010.4 hPa | 0 mm | - | 0 W/m² | - |
| 1778062304 | 6.67° C | 99% | 1010 hPa | 1.78 mm | - | 0 W/m² | - |
| 1778062002 | 6.67° C | 99% | 1010 hPa | 1.78 mm | - | 0 W/m² | - |
| 1778061700 | 6.67° C | 99% | 1010 hPa | 1.27 mm | - | 0 W/m² | - |
| 1778061398 | 6.67° C | 99% | 1009.7 hPa | 1.27 mm | - | 0 W/m² | - |
| 1778061094 | 7.22° C | 99% | 1009.7 hPa | 0 mm | - | 0 W/m² | - |
| 1778060792 | 6.67° C | 99% | 1009.7 hPa | 1.78 mm | - | 0 W/m² | - |
| 1778060490 | 7.22° C | 99% | 1010 hPa | 1.78 mm | - | 0 W/m² | - |
| 1778060188 | 7.22° C | 99% | 1010 hPa | 1.27 mm | - | 0 W/m² | - |
| 1778059885 | 7.22° C | 99% | 1010.4 hPa | 1.27 mm | - | 0 W/m² | - |
| 1778059583 | 7.22° C | 99% | 1010.4 hPa | 1.78 mm | - | 0 W/m² | - |
| 1778059280 | 7.22° C | 99% | 1010.7 hPa | 3.05 mm | - | 0 W/m² | - |
| 1778058978 | 7.22° C | 99% | 1011.1 hPa | 4.32 mm | - | 0 W/m² | - |
| 1778058675 | 7.22° C | 99% | 1010.7 hPa | 4.83 mm | - | 0 W/m² | - |
| 1778058373 | 7.22° C | 99% | 1011.1 hPa | 3.05 mm | - | 0 W/m² | - |
| 1778058069 | 7.22° C | 99% | 1010.7 hPa | 1.78 mm | - | 0 W/m² | - |
| 1778057766 | 7.22° C | 99% | 1010.7 hPa | 0 mm | - | 0 W/m² | - |
| 1778057462 | 7.22° C | 99% | 1010.7 hPa | 1.27 mm | - | 0 W/m² | - |
| 1778057159 | 7.22° C | 99% | 1010.4 hPa | 0 mm | - | 0 W/m² | - |
| 1778056855 | 7.22° C | 99% | 1010.7 hPa | 0 mm | - | 0 W/m² | - |
| 1778056552 | 7.22° C | 99% | 1010.4 hPa | 0 mm | - | 0 W/m² | - |
| 1778056250 | 7.22° C | 99% | 1010.4 hPa | 1.78 mm | - | 0 W/m² | - |
| 1778055946 | 7.22° C | 99% | 1010.7 hPa | 1.78 mm | - | 0 W/m² | - |
| 1778055642 | 7.22° C | 99% | 1010.7 hPa | 1.78 mm | - | 0 W/m² | - |
* Rain latest hour (hover to see other rain measurements)
** Current wind speed in m/s (hover to see current wind gust speed)